Precipitable_Water
0.78 0.72 0.90 0.94 0.89 0.83 0.84 0.87 0.85 0.87 0.91 0.94 0.96 0.95 0.99 1.02 0.99 1.14 1.17 1.15 1.21 1.12 1.09 1.01 0.94 0.87 0.80 0.72 0.69 0.69 0.69 0.67
0.78 0.81 0.78 0.82 0.85 0.87 0.86 0.87 0.94 0.97 1.01 0.92 0.97 0.81 0.85 0.86 1.03 1.24 1.22 1.27 1.20 1.09 1.08 1.00 0.95 0.87 0.80 0.79 0.73 0.67 0.66 0.69
0.69 0.76 0.79 0.82 0.78 0.82 0.90 0.95 0.97 1.02 1.03 0.96 0.90 0.80 0.77 0.81 1.07 1.24 1.27 1.39 1.12 1.08 1.05 0.98 0.95 0.92 0.88 0.82 0.77 0.69 0.68 0.70
0.64 0.69 0.76 0.83 0.81 0.80 0.85 0.89 0.92 0.98 1.03 0.94 0.96 0.89 0.83 0.81 1.01 1.04 1.14 1.34 1.19 1.10 1.10 1.08 1.02 0.99 0.89 0.84 0.80 0.72 0.67 0.72
0.65 0.65 0.73 0.79 0.82 0.87 0.86 0.86 0.85 0.91 0.99 0.97 0.97 0.83 0.74 0.87 1.02 1.11 1.11 1.20 1.25 1.23 1.24 1.23 1.18 1.13 1.04 0.96 0.94 0.82 0.75 0.71
0.63 0.62 0.66 0.76 0.82 0.84 0.87 0.92 0.94 0.98 0.98 1.02 1.05 0.91 0.87 0.92 1.08 1.15 1.19 1.22 1.23 1.24 1.27 1.25 1.22 1.16 1.11 1.03 1.03 0.98 0.89 0.82
0.72 0.74 0.74 0.74 0.80 0.82 0.86 0.86 0.91 0.96 1.02 1.01 1.04 0.99 0.95 1.01 1.10 1.10 1.16 1.20 1.22 1.28 1.29 1.25 1.22 1.19 1.17 1.14 1.12 1.02 0.98 0.90
0.71 0.76 0.77 0.77 0.78 0.81 0.85 0.86 0.87 0.96 1.00 1.03 1.06 1.07 1.06 1.04 1.09 1.14 1.17 1.24 1.19 1.18 1.15 1.15 1.16 1.22 1.21 1.17 1.09 1.04 0.99 0.90
0.72 0.72 0.80 0.85 0.86 0.88 0.90 0.91 0.88 0.93 0.99 1.03 1.07 1.09 1.08 1.21 1.20 1.23 1.20 1.20 1.11 1.08 1.15 1.16 1.15 1.14 1.13 1.11 1.01 0.99 0.94 0.95
0.71 0.82 0.76 0.86 0.92 0.95 0.96 1.00 0.99 1.01 1.06 1.09 1.08 1.19 1.24 1.20 1.15 1.35 1.26 1.22 1.10 1.08 1.12 1.09 1.09 1.05 1.04 1.01 0.94 0.88 0.93 0.95
0.61 0.79 0.78 0.85 0.92 1.02 1.03 1.02 1.00 1.07 1.10 1.13 1.14 1.18 1.26 1.25 1.20 1.33 1.34 1.22 1.12 1.13 1.10 1.09 1.05 1.01 0.97 0.92 0.87 0.92 0.86 0.89
0.52 0.56 0.68 0.83 0.92 1.00 1.23 1.05 1.22 1.12 1.19 1.21 1.27 1.22 1.26 1.25 1.27 1.34 1.21 1.15 1.11 1.09 1.04 1.00 0.93 0.90 0.88 0.84 0.82 0.82 0.88 0.81
0.57 0.54 0.54 0.59 0.71 0.90 1.06 1.15 1.17 1.21 1.20 1.27 1.36 1.31 1.35 1.31 1.26 1.15 1.09 1.14 1.11 1.03 0.96 0.90 0.88 0.87 0.88 0.84 0.80 0.81 0.77 0.82
0.57 0.58 0.55 0.57 0.63 0.74 0.88 1.02 1.11 1.16 1.15 1.20 1.26 1.22 1.23 1.24 1.10 1.08 1.12 1.10 1.05 1.00 0.92 0.88 0.86 0.86 0.83 0.79 0.76 0.82 0.77 0.77
0.48 0.63 0.60 0.60 0.63 0.70 0.83 0.93 1.01 1.02 1.06 1.08 1.08 1.16 1.15 1.05 1.08 1.09 1.07 1.02 0.95 0.90 0.83 0.78 0.77 0.78 0.81 0.75 0.80 0.75 0.79 0.73
0.47 0.60 0.74 0.71 0.70 0.74 0.82 0.84 0.90 1.00 1.02 1.02 0.97 0.99 1.03 1.08 1.05 1.01 0.93 0.86 0.79 0.77 0.74 0.75 0.75 0.77 0.76 0.75 0.74 0.72 0.67 0.66
0.52 0.56 0.79 0.80 0.82 0.82 0.81 0.78 0.85 0.91 0.90 0.91 1.00 1.02 0.98 0.91 0.87 0.83 0.74 0.71 0.68 0.69 0.70 0.70 0.71 0.70 0.70 0.69 0.68 0.66 0.64 0.65
0.52 0.61 0.74 0.82 0.84 0.84 0.80 0.80 0.84 0.85 0.88 0.91 0.87 0.83 0.77 0.74 0.71 0.68 0.65 0.62 0.62 0.61 0.62 0.64 0.64 0.65 0.67 0.65 0.63 0.60 0.59 0.57
0.57 0.66 0.65 0.71 0.76 0.76 0.80 0.80 0.79 0.77 0.75 0.72 0.70 0.68 0.66 0.63 0.58 0.55 0.55 0.57 0.58 0.59 0.60 0.61 0.61 0.60 0.58 0.58 0.58 0.56 0.54 0.52
Wind_Speed
7 9 10 12 13 15 15 16 18 18 17 17 17 16 14 14 14 15 15 16 14 14 12 13 12 12 13 14 14 15 15 17
8 10 11 12 13 14 14 15 15 16 15 15 14 15 14 14 14 15 15 16 15 14 14 14 14 15 15 16 17 18 19 19
10 11 11 13 13 13 13 13 13 14 13 13 13 13 14 14 14 15 15 17 15 15 15 15 16 17 18 19 20 21 22 22
11 12 13 13 14 14 14 14 13 13 13 12 13 12 13 14 15 14 16 16 17 17 18 18 18 20 22 22 23 24 23 24
12 14 14 14 15 15 14 14 14 13 14 13 13 13 14 14 15 15 17 18 18 19 20 21 21 22 24 25 26 26 26 27
14 14 15 16 16 16 16 16 15 15 15 15 15 15 15 16 16 16 16 17 19 21 22 23 25 25 25 26 27 26 25 27
15 15 16 17 18 18 18 18 18 18 17 17 17 17 17 17 18 18 18 19 20 22 22 23 24 27 27 30 30 27 28 29
15 17 17 18 19 19 19 20 20 19 19 20 20 20 19 21 21 22 20 19 19 20 22 23 27 30 30 28 25 27 29 30
16 18 20 21 21 21 21 21 21 22 22 22 22 22 23 22 25 24 22 22 21 21 23 24 25 25 25 25 27 28 30 32
19 20 21 23 23 23 24 24 24 24 24 25 25 24 24 24 31 26 25 22 22 23 24 25 27 27 26 27 28 30 30 31
13 20 21 23 24 25 26 28 26 25 26 27 27 26 26 26 22 26 24 24 24 25 26 28 27 27 28 29 30 30 32 31
11 14 16 19 24 26 29 27 21 23 26 28 28 28 28 27 24 23 23 24 25 26 27 27 28 29 30 30 31 32 31 33
10 11 12 15 18 19 21 25 25 25 25 27 26 25 26 25 22 23 23 24 25 27 28 29 29 30 30 30 31 32 34 32
12 12 14 15 16 18 20 21 21 22 22 23 22 22 23 21 22 22 23 25 26 28 29 29 29 30 30 31 33 33 32 32
14 14 14 14 15 17 18 19 20 20 19 20 19 19 20 21 21 22 23 25 26 27 28 29 29 30 30 32 31 32 32 34
15 15 14 14 13 14 15 15 15 15 16 16 17 18 19 19 21 23 24 25 26 28 27 28 29 29 30 30 31 31 33 35
17 17 15 15 15 14 15 16 16 16 16 16 17 18 19 20 21 22 24 25 25 25 26 27 28 28 28 30 31 32 34 36
17 17 16 17 16 16 16 17 18 17 17 17 18 19 20 20 22 23 24 24 24 24 25 26 27 28 29 30 32 33 35 37
17 18 18 18 17 17 17 17 17 17 18 18 18 19 19 20 21 22 22 23 24 25 25 26 28 29 30 31 32 34 36 38
Wind_Direction
139 137 137 141 141 144 147 151 154 156 160 160 168 180 188 190 196 205 209 213 216 219 226 227 231 241 247 254 260 267 277 282
157 157 155 154 156 154 156 162 164 165 170 179 183 189 197 204 211 216 221 220 219 224 232 235 242 249 255 260 265 270 276 282
178 173 171 172 172 173 172 173 176 180 185 191 198 204 211 215 221 225 230 225 227 231 237 245 253 257 261 264 268 273 276 279
191 189 187 184 184 186 186 185 187 193 196 201 208 214 220 224 227 233 234 232 236 240 245 253 260 264 265 267 270 274 277 278
199 200 198 197 196 196 198 199 201 205 209 214 217 224 228 232 234 240 242 241 245 249 253 257 264 269 271 269 271 272 277 281
204 204 206 206 206 206 209 211 215 218 222 227 229 233 236 239 242 242 244 245 251 256 261 262 267 271 273 274 271 272 278 282
215 214 215 216 217 218 220 223 227 230 231 233 237 239 242 243 242 246 248 252 261 261 264 270 271 272 273 279 277 275 278 284
224 220 220 220 223 223 227 231 235 236 238 239 242 244 248 248 250 247 247 252 262 264 268 275 279 277 278 283 278 277 281 285
232 231 227 227 227 228 231 235 238 240 242 244 244 250 251 254 254 252 257 258 264 271 275 276 284 287 280 281 281 282 286 286
236 237 236 234 234 234 235 237 240 243 246 246 249 253 251 257 259 252 259 264 268 273 277 280 284 284 282 282 284 285 287 289
243 239 240 237 238 239 238 238 237 245 249 249 250 252 250 264 263 257 260 268 272 273 277 282 284 285 283 284 285 282 288 287
247 251 249 244 243 243 239 256 241 249 252 251 250 252 254 264 265 262 265 272 274 277 280 282 283 284 285 285 286 288 283 288
248 250 251 249 246 244 240 244 248 251 253 252 248 256 259 261 259 267 271 274 279 280 281 282 284 286 285 285 285 289 289 284
254 254 254 252 249 245 243 243 246 249 254 253 254 258 261 258 266 270 273 277 281 282 283 283 285 286 286 286 289 288 287 289
253 254 255 252 249 247 245 243 246 252 252 254 253 256 261 265 268 273 277 281 284 285 285 284 286 287 287 289 289 289 288 291
259 250 254 247 249 247 241 238 242 245 247 251 256 259 264 267 271 275 281 284 286 287 286 286 287 288 289 289 290 291 291 293
256 253 247 248 247 244 241 238 243 248 252 256 259 263 267 271 275 279 282 285 287 287 288 288 289 289 289 291 291 293 294 295
254 247 248 249 246 245 246 243 243 248 254 258 262 266 271 274 279 282 285 287 288 289 290 290 291 292 292 293 294 296 296 297
255 251 248 246 245 245 244 243 245 249 255 260 263 267 272 276 281 284 286 288 290 292 292 293 293 294 294 295 296 297 298 299